Content
SEND FEEDBACK

Daily
Averages
Monthly
Summary
Malaysia

ALOR SETAR, MALAYSIA


Home > Asia > Malaysia
Elevation: 13 feet     Latitude: 06 11N     Longitude: 100 24E

WEATHER
 
SELECT A DAY
Number of Records: 90,353;   Date Range: 6/24/00 - 7/9/14
 
SHARE

PRINT THIS DATA

[ ← Previous Day ]
WEATHER ALMANAC - FEBRUARY 1, 2013
[ Next Day → ]
[ °C ]   °F
Weather ElementAverageHighLow
Temperature84.8 °F95 °F (4:00 pm)78.8 °F (2:00 am)
Dewpoint75.6 °F78.8 °F (4:00 pm)73.4 °F (7:00 am)
Humidity74.7 %89 % (2:00 am)59 % (2:00 pm)
Barometer29.87 in29.92 in (1:00 am)29.77 in (5:00 pm)
Wind Speed6.6 mph11.5 mph (1:00 pm)
Weather ElementAverage
Visibility6.2 mi
Wind DirectionENE (51.3 °)

Weather ElementTotal
Precipitation---
Cooling Degree Days21.9 (Base 65)
Growing Degree Days36.9 (Base 50)
Averaged from 23 records on February 1, 2013
WEATHER CONDITIONS BREAKOUT
WIND DIRECTION BREAKOUT
WEATHER BY HOUR - FEBRUARY 1, 2013
[ °C ]   °F
Local TimeTemperatureDewpointHumidityBarometerVisibilityWind DirectionWind SpeedGust SpeedPrecipitationEventsConditions
1:00 AM80.6 °F75.2 °F84 %29.92 in6.2 miENE (70°)3.5 mphMostly Cloudy
2:00 AM78.8 °F75.2 °F89 %29.92 in6.2 miNE (50°)3.5 mphMostly Cloudy
3:00 AM78.8 °F75.2 °F89 %29.89 in6.2 miNE (50°)4.6 mphMostly Cloudy
4:00 AM78.8 °F75.2 °F89 %29.89 in6.2 miNE (50°)3.5 mphMostly Cloudy
5:00 AM78.8 °F75.2 °F89 %29.86 in6.2 miNE (50°)3.5 mphMostly Cloudy
6:00 AM78.8 °F75.2 °F89 %29.86 in6.2 miENE (60°)3.5 mphMostly Cloudy
7:00 AM78.8 °F73.4 °F83 %29.89 in6.2 miENE (60°)3.5 mphMostly Cloudy
8:00 AM78.8 °F73.4 °F83 %29.89 in6.2 miNNE (20°)1.2 mphMostly Cloudy
9:00 AM80.6 °F75.2 °F84 %29.92 in6.2 miNE (50°)6.9 mphMostly Cloudy
10:00 AM84.2 °F75.2 °F74 %29.92 in6.2 miNE (50°)9.2 mphMostly Cloudy
11:00 AM84.2 °F75.2 °F74 %29.92 in6.2 miNE (50°)8.1 mphMostly Cloudy
12:00 PM87.8 °F77.0 °F70 %29.92 in6.2 miNE (50°)8.1 mphMostly Cloudy
1:00 PM91.4 °F77.0 °F63 %29.89 in6.2 miENE (70°)11.5 mphMostly Cloudy
2:00 PM93.2 °F77.0 °F59 %29.86 in6.2 miNE (50°)9.2 mphMostly Cloudy
3:00 PM93.2 °F77.0 °F59 %29.80 in6.2 miNE (50°)8.1 mphMostly Cloudy
4:00 PM95.0 °F78.8 °F59 %29.80 in6.2 miENE (70°)9.2 mphMostly Cloudy
5:00 PM93.2 °F77.0 °F59 %29.77 in6.2 miNE (50°)9.2 mphMostly Cloudy
6:00 PM93.2 °F77.0 °F59 %29.77 in6.2 miNE (50°)8.1 mphMostly Cloudy
7:00 PM89.6 °F77.0 °F66 %29.80 in6.2 miNE (50°)8.1 mphMostly Cloudy
8:00 PM86.0 °F75.2 °F70 %29.83 in6.2 miNE (50°)9.2 mphMostly Cloudy
9:00 PM84.2 °F75.2 °F74 %29.83 in6.2 miNE (40°)5.8 mphMostly Cloudy
10:00 PM82.4 °F73.4 °F74 %29.86 in6.2 miNE (50°)6.9 mphMostly Cloudy
11:00 PM80.6 °F73.4 °F79 %29.89 in6.2 miNE (40°)6.9 mphMostly Cloudy
Hourly data recorded from WMKA, located miles away from Alor Setar, Malaysia







STORIES FROM OUR PARTNERS